Wind_Speed
22 22 22 22 22 23 24 24 24 24 23 23 23 23 23 24 23 22 22 22 22 22 22 21 20 20 20 20 19 18 18 18 18 17 17 16 16 16 16 16 16 16 16
23 23 23 23 24 24 25 26 25 25 24 23 23 23 23 24 24 24 23 23 23 23 23 23 22 21 20 20 19 20 19 19 20 20 19 19 19 19 18 19 19 19 19
23 24 24 24 24 25 25 25 25 25 25 24 24 24 24 24 25 24 24 24 24 24 23 23 23 23 21 21 21 21 21 20 21 21 21 21 21 21 21 21 21 21 21
23 24 24 25 25 25 26 26 26 26 26 26 25 25 25 25 26 26 25 25 24 23 24 23 23 23 23 22 22 22 22 22 22 23 22 22 23 22 22 22 23 23 24
24 24 24 25 25 26 26 27 27 27 27 27 26 26 26 25 25 25 25 25 25 24 24 24 25 24 24 23 24 24 25 24 24 24 24 24 25 25 25 25 25 25 26
24 25 25 26 26 26 27 28 28 28 28 28 28 28 27 27 26 26 26 26 25 26 27 26 26 25 25 26 26 25 25 25 25 25 26 25 26 26 27 27 27 27 28
24 25 25 27 28 28 28 28 28 28 28 29 29 28 28 27 27 27 27 27 27 27 28 27 27 27 26 26 26 26 26 26 26 26 27 27 28 28 29 29 29 29 30
25 25 26 28 29 29 29 28 28 28 28 28 29 29 28 27 27 27 27 26 26 27 27 27 27 28 27 28 28 27 27 27 28 27 27 28 29 29 30 31 31 31 33
26 27 27 28 28 29 29 28 28 28 28 28 28 28 28 27 27 27 27 26 26 26 26 26 27 28 29 28 27 28 29 29 28 28 28 30 30 32 33 32 32 33 35
27 28 28 28 28 29 29 28 27 27 27 27 27 27 27 27 27 27 27 27 27 26 26 26 26 27 27 28 27 28 29 30 30 30 30 31 31 32 33 33 34 34 34
28 28 29 28 28 28 28 28 28 27 27 27 26 27 27 27 27 27 28 27 27 27 26 27 27 28 28 28 28 29 30 30 31 31 31 31 31 32 32 33 34 34 35
28 28 29 28 28 28 28 28 27 27 27 26 26 26 27 27 27 27 27 26 26 27 27 27 27 27 29 29 30 30 31 32 33 32 32 32 32 32 32 33 34 35 37
28 28 28 28 28 28 27 27 27 27 26 26 26 26 27 27 27 27 26 26 26 27 27 26 26 27 28 30 30 31 31 32 33 33 33 32 32 32 33 34 35 36 36
28 28 28 28 28 28 28 27 27 27 26 26 25 25 25 26 26 26 26 26 27 27 27 27 27 27 28 28 29 30 31 32 32 32 33 33 33 34 35 36 36 37 38
27 27 27 27 27 28 28 27 27 26 26 26 25 25 25 25 25 26 26 27 27 26 26 26 26 27 28 28 28 28 29 30 31 31 32 33 34 34 35 36 36 37 39
27 27 27 27 27 27 27 27 27 27 26 26 25 25 25 24 25 25 25 25 25 26 26 25 26 27 27 26 27 28 28 29 29 30 30 32 33 34 35 35 36 36 36
26 25 25 25 26 25 25 26 26 26 26 25 25 24 24 24 24 24 24 24 24 24 24 25 25 25 25 26 27 27 28 28 29 30 31 32 33 33 34 34 34 33 34
25 24 24 24 24 24 23 23 23 23 24 24 24 25 24 24 24 23 23 23 23 23 24 24 24 24 24 25 25 26 27 27 28 29 30 31 32 32 32 32 31 31 32
23 23 22 22 22 22 22 22 22 22 22 22 22 24 24 24 24 23 23 22 23 23 23 23 23 24 24 24 25 26 26 26 27 27 28 29 30 30 29 29 29 29 29
21 20 19 19 20 20 20 20 20 21 21 20 20 21 21 22 22 21 21 22 21 21 21 22 22 22 23 23 23 24 24 24 25 25 26 26 26 26 26 26 26 26 27
16 16 16 16 17 17 17 17 17 17 18 18 18 18 18 19 21 20 19 19 20 20 20 21 21 21 21 21 21 21 21 22 22 22 22 22 22 22 22 23 24 24 24
13 13 13 13 13 13 13 13 13 14 15 15 15 15 16 17 17 17 17 18 18 18 18 18 17 18 18 18 18 18 18 18 18 19 19 19 20 20 20 21 21 22 22
10 10 9 10 10 10 10 10 10 10 11 11 11 11 12 13 14 14 14 13 13 14 14 14 14 15 15 15 15 15 15 15 15 15 15 16 16 17 17 18 19 19 21
7 7 7 6 6 6 6 6 6 6 5 5 6 6 7 8 9 9 10 10 9 10 11 12 12 13 13 13 12 12 12 13 13 14 14 14 14 15 16 17 18 19 20
5 4 4 4 3 3 3 2 2 2 2 2 2 3 3 3 4 4 5 5 6 7 8 8 9 9 9 9 9 9 10 10 10 11 12 12 13 14 15 16 17 18 19
2 2 2 1 1 2 2 2 0 0 1 2 2 2 2 2 2 2 2 3 4 5 5 5 5 6 6 6 6 7 8 8 9 10 11 12 13 14 15 15 16 17 17
Wind_Direction
263 265 266 268 270 271 272 274 276 276 277 275 273 269 265 266 269 267 265 266 266 266 266 267 267 266 262 260 258 256 254 255 254 253 253 256 257 257 257 258 260 262 264
263 266 267 268 270 273 273 272 272 274 276 275 272 271 270 268 268 266 265 266 265 263 264 265 265 262 265 261 258 256 256 257 255 253 253 255 257 257 258 259 261 263 265
262 266 267 269 271 273 275 274 272 270 271 271 271 272 272 271 269 267 265 264 263 262 262 263 261 261 262 261 261 258 257 258 256 254 254 256 258 258 259 261 263 265 265
263 267 269 271 272 273 273 273 273 271 269 269 269 271 272 271 269 266 264 262 260 261 261 262 261 260 261 262 259 256 256 257 255 254 255 257 257 258 260 263 264 266 266
266 268 270 271 272 273 272 272 271 271 270 269 268 269 271 271 268 266 263 260 259 259 260 261 262 259 260 262 259 257 256 257 256 254 255 257 258 259 261 263 264 265 266
269 270 271 271 272 273 273 272 273 272 271 269 268 268 271 271 269 267 264 261 259 257 258 260 261 259 260 260 259 257 257 256 255 256 257 258 259 259 262 263 264 265 267
269 271 272 272 272 273 273 273 273 272 270 269 268 268 269 269 268 267 264 263 261 259 259 260 259 258 259 257 256 256 256 255 255 257 258 259 259 259 259 261 264 265 267
271 272 273 272 272 272 273 273 273 272 271 270 268 267 267 267 268 265 263 263 263 261 261 260 258 258 259 256 254 255 255 256 258 259 259 257 258 258 260 263 266 267 269
273 273 273 272 272 271 272 272 273 272 271 270 269 267 267 267 267 264 261 261 263 262 262 260 257 257 257 256 254 255 254 256 259 260 259 258 258 258 261 264 265 266 267
274 273 273 272 271 271 271 271 272 271 271 270 269 268 265 265 264 262 261 261 262 263 262 259 257 255 254 254 253 254 253 256 258 259 259 260 259 260 263 265 264 266 267
273 273 272 272 270 270 270 271 270 270 269 269 268 267 266 264 264 263 261 261 261 261 260 261 258 256 255 257 258 256 254 257 258 259 259 261 262 264 265 266 266 268 271
273 273 273 271 269 269 269 269 268 269 268 267 267 266 265 264 263 264 262 261 261 260 260 261 260 258 257 259 259 256 255 256 257 259 261 263 265 264 265 268 269 272 273
273 273 273 272 270 269 269 268 267 267 267 266 266 265 264 262 262 262 261 261 261 260 260 260 260 261 260 260 257 255 255 257 258 259 261 264 265 266 268 270 271 273 273
274 273 272 272 271 270 270 268 267 267 266 266 265 264 263 262 261 260 260 261 261 260 261 260 261 261 260 259 258 259 258 259 260 261 262 264 265 268 269 271 272 273 274
274 273 272 272 272 271 270 269 268 266 266 265 264 263 262 262 261 261 260 260 261 261 261 261 261 260 260 260 260 261 260 262 262 262 264 264 267 269 270 273 273 275 276
274 273 273 273 272 271 271 270 268 267 265 263 263 261 260 260 260 261 261 260 259 261 262 261 261 261 259 259 259 261 262 264 264 264 264 265 268 271 273 273 275 276 277
274 274 275 275 273 272 270 268 267 267 265 263 262 261 259 257 258 259 259 259 262 262 261 259 260 259 257 260 262 263 264 265 266 264 266 269 271 273 275 275 277 278 278
275 275 275 274 272 271 270 268 267 267 265 263 261 260 258 257 257 257 257 259 260 261 260 259 260 260 262 262 263 264 266 266 267 269 270 272 274 275 276 277 277 279 280
276 275 273 273 273 272 271 270 269 268 265 263 262 259 258 258 259 258 258 258 260 260 259 260 262 262 263 263 264 265 267 269 270 272 273 273 275 276 278 279 281 282 283
277 275 274 273 273 272 270 270 269 269 268 262 262 262 260 258 257 257 257 258 259 258 258 260 262 263 264 266 267 268 269 270 270 272 274 275 277 278 280 281 283 285 286
279 275 275 276 275 273 271 270 269 268 266 261 260 259 258 258 254 256 257 257 256 256 258 260 262 265 266 268 270 271 271 272 274 276 277 278 280 283 284 284 287 289 291
278 276 276 278 278 275 272 273 271 268 265 261 257 255 254 253 254 255 256 257 257 257 258 261 264 265 268 270 271 273 274 275 277 277 280 282 283 285 288 289 290 292 294
281 281 279 279 281 279 279 278 275 272 267 261 258 253 251 252 252 256 256 257 259 256 258 261 265 266 269 270 272 273 274 277 280 282 284 287 289 293 294 295 297 298 300
287 285 283 286 293 291 290 287 282 280 268 263 260 252 246 247 251 250 250 255 259 261 262 264 267 268 268 270 273 276 279 280 282 285 289 294 297 299 301 303 303 304 304
291 296 296 303 305 302 305 300 286 285 275 250 231 224 233 244 241 238 241 247 259 263 262 262 265 266 267 272 277 281 285 289 291 294 297 301 305 306 307 309 309 309 308
312 305 327 357 357 333 331 347 196 217 177 156 158 166 173 180 184 194 215 233 248 251 254 261 266 272 279 283 286 289 293 297 299 303 305 307 310 312 312 313 313 314 314
Height
5869 5869 5869 5870 5869 5869 5870 5869 5869 5870 5869 5870 5870 5870 5870 5871 5872 5872 5872 5873 5873 5874 5874 5875 5875 5876 5877 5878 5879 5880 5880 5882 5883 5884 5885 5885 5886 5887 5887 5888 5888 5889 5889
5864 5865 5865 5865 5865 5864 5864 5864 5865 5865 5865 5865 5865 5865 5866 5866 5866 5867 5868 5868 5868 5869 5870 5870 5871 5872 5873 5873 5874 5875 5876 5877 5878 5879 5880 5881 5882 5882 5883 5884 5884 5885 5885
5859 5860 5860 5859 5859 5859 5859 5859 5859 5859 5859 5859 5860 5860 5860 5861 5861 5861 5862 5863 5863 5864 5865 5866 5866 5867 5868 5869 5870 5870 5872 5872 5873 5874 5875 5876 5877 5878 5878 5879 5879 5880 5880
5854 5854 5854 5854 5854 5854 5853 5853 5854 5854 5854 5854 5854 5854 5855 5855 5855 5856 5857 5857 5858 5859 5860 5861 5861 5862 5863 5863 5864 5865 5866 5867 5868 5869 5870 5871 5872 5873 5873 5874 5874 5875 5875
5848 5848 5849 5848 5848 5848 5848 5848 5848 5848 5848 5848 5848 5849 5849 5849 5849 5850 5851 5851 5852 5853 5854 5855 5856 5857 5858 5858 5859 5860 5861 5862 5863 5864 5865 5866 5866 5867 5868 5868 5868 5869 5869
5842 5843 5843 5842 5842 5842 5842 5842 5842 5842 5841 5841 5842 5842 5843 5843 5843 5844 5845 5845 5846 5847 5848 5849 5850 5851 5852 5853 5854 5854 5855 5856 5857 5858 5859 5860 5860 5861 5861 5862 5862 5863 5863
5836 5836 5836 5836 5836 5835 5835 5835 5835 5835 5835 5835 5835 5836 5836 5836 5837 5838 5838 5839 5840 5841 5842 5843 5844 5845 5846 5847 5848 5848 5849 5850 5851 5852 5852 5853 5854 5854 5855 5855 5856 5856 5856
5830 5830 5829 5829 5829 5828 5828 5828 5828 5828 5828 5828 5829 5829 5830 5831 5831 5831 5832 5833 5833 5834 5835 5836 5837 5839 5840 5841 5842 5842 5843 5844 5845 5845 5846 5846 5847 5847 5848 5848 5848 5848 5848
5823 5823 5822 5822 5822 5821 5821 5821 5821 5821 5821 5821 5822 5822 5823 5824 5824 5825 5825 5826 5827 5828 5829 5829 5830 5831 5833 5834 5835 5836 5836 5837 5838 5839 5839 5840 5840 5840 5841 5841 5841 5841 5841
5815 5815 5815 5814 5814 5814 5814 5814 5814 5814 5815 5815 5815 5815 5816 5817 5818 5818 5819 5820 5821 5822 5822 5823 5824 5825 5826 5827 5828 5829 5829 5830 5831 5831 5832 5832 5832 5832 5833 5833 5833 5833 5833
5808 5808 5807 5807 5807 5807 5807 5807 5807 5807 5807 5808 5808 5808 5809 5809 5810 5812 5812 5813 5814 5815 5816 5816 5817 5818 5819 5820 5821 5822 5822 5823 5824 5824 5824 5824 5825 5825 5825 5825 5825 5824 5824
5801 5800 5800 5799 5799 5799 5800 5800 5800 5800 5800 5801 5801 5801 5802 5803 5804 5805 5805 5806 5807 5808 5809 5809 5811 5812 5812 5813 5814 5815 5815 5816 5816 5817 5817 5817 5817 5817 5817 5817 5817 5816 5815
5794 5793 5792 5792 5792 5792 5792 5792 5793 5793 5793 5794 5794 5794 5795 5796 5797 5798 5799 5799 5800 5801 5802 5803 5804 5805 5805 5806 5806 5807 5808 5809 5809 5809 5809 5809 5809 5809 5809 5809 5809 5808 5807
5786 5786 5785 5785 5784 5784 5784 5784 5785 5785 5786 5786 5787 5787 5788 5788 5789 5790 5792 5793 5793 5794 5795 5796 5797 5798 5798 5799 5799 5800 5801 5801 5801 5801 5802 5802 5802 5801 5801 5801 5800 5799 5798
5779 5778 5778 5777 5777 5777 5777 5777 5777 5778 5778 5779 5780 5780 5781 5781 5782 5783 5784 5785 5787 5787 5788 5789 5790 5791 5791 5792 5792 5792 5793 5793 5793 5794 5794 5794 5794 5793 5793 5792 5791 5790 5789
5771 5770 5770 5769 5769 5769 5769 5770 5770 5770 5771 5772 5772 5773 5774 5775 5776 5776 5777 5778 5779 5780 5781 5782 5783 5784 5784 5785 5785 5785 5786 5786 5786 5786 5786 5786 5786 5785 5785 5784 5783 5782 5780
5763 5763 5762 5762 5762 5762 5762 5762 5762 5763 5763 5764 5765 5766 5767 5768 5769 5770 5771 5771 5772 5773 5774 5775 5776 5776 5777 5778 5778 5778 5779 5779 5779 5779 5779 5778 5778 5777 5776 5776 5774 5773 5772
5756 5755 5755 5755 5755 5754 5754 5755 5755 5755 5756 5757 5758 5759 5760 5761 5762 5763 5764 5765 5766 5767 5768 5768 5769 5770 5770 5771 5771 5772 5772 5772 5772 5772 5771 5771 5770 5770 5769 5767 5766 5765 5764
5749 5748 5748 5748 5748 5748 5748 5748 5748 5749 5749 5750 5751 5752 5753 5754 5756 5757 5758 5759 5760 5761 5761 5762 5763 5763 5764 5764 5765 5765 5765 5765 5765 5765 5764 5764 5763 5762 5761 5760 5759 5758 5757
5743 5742 5742 5742 5742 5741 5742 5742 5742 5742 5743 5744 5745 5746 5747 5748 5750 5751 5752 5753 5754 5755 5756 5756 5757 5757 5758 5758 5758 5759 5759 5759 5759 5758 5758 5757 5756 5755 5754 5753 5752 5751 5750
5737 5737 5737 5737 5736 5736 5736 5736 5737 5737 5737 5738 5739 5740 5741 5743 5744 5745 5747 5748 5749 5750 5751 5751 5751 5752 5752 5753 5753 5753 5753 5753 5753 5752 5751 5751 5750 5749 5748 5747 5746 5745 5743
5733 5733 5732 5732 5732 5732 5732 5732 5732 5733 5733 5733 5734 5735 5736 5737 5739 5740 5741 5743 5744 5745 5746 5746 5747 5747 5748 5748 5748 5748 5748 5748 5748 5747 5747 5746 5745 5744 5743 5742 5741 5739 5738
5730 5729 5729 5729 5728 5728 5728 5728 5728 5729 5729 5729 5730 5731 5732 5733 5735 5736 5737 5738 5739 5740 5741 5742 5743 5743 5743 5744 5744 5744 5744 5743 5743 5743 5742 5741 5740 5739 5738 5737 5736 5734 5733
5727 5727 5726 5726 5726 5726 5726 5726 5726 5726 5726 5727 5728 5728 5729 5731 5732 5733 5734 5735 5736 5737 5738 5738 5738 5739 5739 5740 5740 5740 5740 5740 5739 5739 5738 5737 5736 5735 5734 5733 5731 5730 5728
5725 5725 5725 5725 5725 5724 5724 5724 5725 5725 5725 5726 5726 5727 5728 5729 5730 5731 5732 5733 5734 5734 5735 5735 5735 5736 5736 5736 5737 5737 5737 5736 5736 5736 5735 5734 5733 5732 5730 5729 5727 5725 5723
5724 5724 5724 5724 5724 5724 5724 5724 5724 5725 5725 5726 5726 5727 5728 5729 5729 5730 5731 5731 5732 5732 5733 5733 5734 5734 5734 5734 5734 5734 5734 5734 5733 5733 5732 5731 5730 5729 5727 5726 5724 5722 5719